Orbital Elements at Epoch 2459200.5 (2020-Dec-17.0) TDB
Reference: JPL 16 (heliocentric ecliptic J2000)
Element | Value | Uncertainty (1-sigma) | Units |
e | .07412097323318832 | 4.8784e-08 | |
a | 2.235394870199016 | 1.216e-08 | au |
q | 2.069705226859388 | 1.1395e-07 | au |
i | 4.879036395765195 | 5.7337e-06 | deg |
node | 52.00100339315044 | 6.1263e-05 | deg |
peri | 52.58759467392095 | 7.3375e-05 | deg |
M | 64.41927643894877 | 4.0246e-05 | deg |
tp | 2458982.054479413787 (2020-May-12.55447941) | 0.00013638 | TDB |
period | 1220.758626271833 3.34 | 9.9607e-06 2.727e-08 | d yr |
n | .2948985919513271 | 2.4062e-09 | deg/d |
Q | 2.401084513538643 | 1.3061e-08 | au |
|
| | Orbit Determination Parameters
Additional Information
|